Location: Namasale
(1.5000°N, 32.6167°E)
Time: 17:58:25
(UTC+00:00)

S-56A Canister/Altair - All Passes

Search period start: 19 April 2021 00:00
Search period end: 29 April 2021 00:00
Orbit: 632 x 2500 km, 38.9° (Epoch: 18 April)

Date Brightness Start Highest point End Pass type
(mag) Time Alt. Az. Time Alt. Az. Time Alt. Az.
19 Apr - 04:56:16 10° NNW 05:01:20 52° NE 05:08:37 10° ESE daylight
19 Apr - 07:00:22 10° W 07:06:03 29° SSW 07:14:00 10° SSE daylight
19 Apr - 13:35:52 10° S 13:39:23 11° SSE 13:42:50 10° SE daylight
19 Apr - 15:36:01 10° SSW 15:48:59 35° SE 15:59:27 10° E daylight
19 Apr - 17:41:52 10° SW 17:55:49 80° NW 18:05:19 10° NE visible
19 Apr - 19:53:31 10° W 20:00:35 19° NW 20:06:11 10° N visible
20 Apr - 04:24:09 10° NNW 04:28:47 39° NE 04:35:05 10° ESE daylight
20 Apr - 06:27:38 10° W 06:33:04 32° SW 06:40:47 10° SSE daylight
20 Apr - 15:02:43 10° SSW 15:15:20 32° SE 15:25:59 10° E daylight
20 Apr - 17:08:02 10° SW 17:22:31 89° SE 17:32:41 10° NE visible
20 Apr - 19:18:37 10° W 19:27:36 25° NW 19:34:25 10° N visible
21 Apr - 03:52:06 10° NNW 03:56:16 29° NE 04:01:32 10° ESE daylight
21 Apr - 05:54:57 10° WNW 06:00:10 37° SW 06:07:37 10° SSE daylight
21 Apr - 14:29:32 10° SSW 14:41:37 28° SE 14:52:17 10° E daylight
21 Apr - 16:34:17 10° SW 16:49:09 80° SE 16:59:58 10° NE visible
21 Apr - 18:43:57 10° W 18:54:34 31° NW 19:02:24 10° NNE visible
22 Apr - 03:20:11 10° N 03:23:44 21° NE 03:27:55 10° E visible
22 Apr - 05:22:22 10° WNW 05:27:23 43° SW 05:34:30 10° SSE daylight
22 Apr - 13:56:29 10° SSW 14:07:51 25° SE 14:18:21 10° E daylight
22 Apr - 16:00:39 10° SW 16:15:40 72° SE 16:27:06 10° ENE visible
22 Apr - 18:09:29 10° WSW 18:21:26 37° NW 18:30:13 10° NNE visible
23 Apr - 02:48:29 10° N 02:51:10 15° NE 02:54:07 10° E visible
23 Apr - 04:49:50 10° WNW 04:54:39 52° SW 05:01:25 10° SE daylight
23 Apr - 13:23:36 10° S 13:34:03 22° SE 13:44:07 10° ESE daylight
23 Apr - 15:27:06 10° SW 15:42:07 64° SE 15:54:06 10° ENE daylight
23 Apr - 17:35:09 10° WSW 17:48:14 45° NW 17:57:54 10° NNE visible
24 Apr - 02:17:28 10° NNE 02:18:34 11° NE 02:19:41 10° NE visible
24 Apr - 04:17:21 10° WNW 04:22:02 65° SW 04:28:22 10° SE daylight
24 Apr - 06:25:43 10° SW 06:27:27 11° SSW 06:29:21 10° SSW daylight
24 Apr - 12:50:54 10° S 13:00:15 19° SSE 13:09:32 10° ESE daylight
24 Apr - 14:53:41 10° SW 15:08:30 57° SE 15:20:56 10° ENE daylight
24 Apr - 17:00:57 10° WSW 17:14:58 52° NW 17:25:26 10° NNE visible
24 Apr - 19:17:20 10° WNW 19:20:49 12° NW 19:23:59 10° NNW visible
25 Apr - 03:44:55 10° NW 03:49:27 84° SW 03:55:22 10° SE daylight
25 Apr - 05:52:06 10° SW 05:54:26 12° SSW 05:57:04 10° S daylight
25 Apr - 12:18:29 10° S 12:26:25 16° SSE 12:34:30 10° ESE daylight
25 Apr - 14:20:22 10° SSW 14:34:50 51° SE 14:47:37 10° ENE daylight
25 Apr - 16:26:55 10° WSW 16:41:35 61° NW 16:52:52 10° NE visible
25 Apr - 18:40:58 10° WNW 18:47:34 16° NW 18:53:11 10° N visible
26 Apr - 03:12:31 10° NW 03:16:57 74° NE 03:22:23 10° SE visible
26 Apr - 05:18:46 10° WSW 05:21:30 14° SSW 05:24:40 10° S daylight
26 Apr - 11:46:31 10° S 11:52:35 13° SSE 11:58:53 10° ESE daylight
26 Apr - 13:47:11 10° SSW 14:01:09 45° SE 14:14:08 10° ENE daylight
26 Apr - 15:53:02 10° SW 16:08:07 69° NW 16:20:09 10° NE visible
26 Apr - 18:05:31 10° W 18:14:17 20° NW 18:21:31 10° N visible
27 Apr - 02:40:10 10° NW 02:44:28 54° NE 02:49:25 10° ESE visible
27 Apr - 04:45:35 10° WSW 04:48:39 16° SSW 04:52:12 10° S daylight
27 Apr - 11:15:42 10° SSE 11:18:45 11° SSE 11:21:54 10° SE daylight
27 Apr - 13:14:08 10° SSW 13:27:27 40° SE 13:40:26 10° ENE daylight
27 Apr - 15:19:17 10° SW 15:34:35 78° NW 15:47:19 10° NE daylight
27 Apr - 17:30:27 10° W 17:40:56 24° NW 17:49:30 10° N visible
28 Apr - 02:07:49 10° NNW 02:11:59 39° NE 02:16:27 10° ESE visible
28 Apr - 04:12:34 10° WSW 04:15:52 18° SW 04:19:44 10° S daylight
28 Apr - 12:41:13 10° SSW 12:53:45 35° SE 13:06:31 10° E daylight
28 Apr - 14:45:41 10° SW 15:00:59 87° NW 15:14:21 10° NE daylight
28 Apr - 16:55:41 10° W 17:07:32 29° NW 17:17:15 10° NNE visible
